TimeEST,TemperatureF,Dew PointF,Humidity,Sea Level PressureIn,VisibilityMPH,Wind Direction,Wind SpeedMPH,Gust SpeedMPH,PrecipitationIn,Events,Conditions,WindDirDegrees,DateUTC
12:15 AM,39.2,28.4,65,30.18,10.0,South,3.5,-,N/A,,Overcast,170,2013-01-06 05:15:00
12:35 AM,39.2,28.4,65,30.18,10.0,South,3.5,-,N/A,,Overcast,180,2013-01-06 05:35:00
12:55 AM,39.2,28.4,65,30.19,10.0,South,3.5,-,N/A,,Overcast,190,2013-01-06 05:55:00
1:15 AM,39.2,28.4,65,30.18,10.0,Calm,Calm,-,N/A,,Overcast,0,2013-01-06 06:15:00
1:35 AM,39.2,28.4,65,30.17,10.0,Calm,Calm,-,N/A,,Overcast,0,2013-01-06 06:35:00
1:55 AM,39.2,30.2,70,30.17,10.0,Calm,Calm,-,N/A,,Overcast,0,2013-01-06 06:55:00
2:15 AM,37.4,32.0,81,30.17,10.0,NNW,3.5,-,N/A,,Overcast,330,2013-01-06 07:15:00
2:35 AM,37.4,30.2,75,30.15,10.0,Calm,Calm,-,N/A,,Overcast,0,2013-01-06 07:35:00
2:55 AM,39.2,30.2,70,30.14,10.0,Calm,Calm,-,N/A,,Overcast,0,2013-01-06 07:55:00
3:15 AM,39.2,30.2,70,30.14,10.0,Calm,Calm,-,N/A,,Overcast,0,2013-01-06 08:15:00
3:35 AM,37.4,32.0,81,30.15,10.0,Calm,Calm,-,N/A,,Mostly Cloudy,0,2013-01-06 08:35:00
3:55 AM,35.6,30.2,81,30.15,10.0,North,3.5,-,N/A,,Scattered Clouds,360,2013-01-06 08:55:00
4:15 AM,33.8,28.4,81,30.14,10.0,Calm,Calm,-,N/A,,Scattered Clouds,0,2013-01-06 09:15:00
4:35 AM,33.8,30.2,87,30.14,10.0,Calm,Calm,-,N/A,,Scattered Clouds,0,2013-01-06 09:35:00
5:15 AM,30.2,30.2,100,30.13,10.0,Calm,Calm,-,N/A,,Clear,0,2013-01-06 10:15:00
5:35 AM,28.4,28.4,100,30.13,10.0,Calm,Calm,-,N/A,,Clear,0,2013-01-06 10:35:00
5:55 AM,28.4,28.4,100,30.13,10.0,Calm,Calm,-,N/A,,Clear,0,2013-01-06 10:55:00
6:35 AM,26.6,26.6,100,30.13,10.0,Calm,Calm,-,N/A,,Clear,0,2013-01-06 11:35:00
6:55 AM,26.6,26.6,100,30.13,10.0,Calm,Calm,-,N/A,,Clear,0,2013-01-06 11:55:00
7:35 AM,26.6,26.6,100,30.14,10.0,North,3.5,-,N/A,,Clear,360,2013-01-06 12:35:00
7:55 AM,26.6,26.6,100,30.14,10.0,North,3.5,-,N/A,,Clear,10,2013-01-06 12:55:00
8:15 AM,26.6,26.6,100,30.14,10.0,Calm,Calm,-,N/A,,Clear,0,2013-01-06 13:15:00
8:35 AM,30.2,30.2,100,30.15,10.0,Calm,Calm,-,N/A,,Clear,0,2013-01-06 13:35:00
8:55 AM,33.8,32.0,93,30.15,10.0,Calm,Calm,-,N/A,,Clear,0,2013-01-06 13:55:00
9:15 AM,35.6,32.0,87,30.15,10.0,Calm,Calm,-,N/A,,Clear,0,2013-01-06 14:15:00
9:35 AM,39.2,30.2,70,30.16,10.0,Calm,Calm,-,N/A,,Clear,0,2013-01-06 14:35:00
9:55 AM,39.2,30.2,70,30.16,10.0,Calm,Calm,-,N/A,,Clear,0,2013-01-06 14:55:00
10:15 AM,39.2,30.2,70,30.16,10.0,Calm,Calm,-,N/A,,Clear,0,2013-01-06 15:15:00
10:35 AM,42.8,30.2,61,30.15,10.0,Calm,Calm,-,N/A,,Clear,0,2013-01-06 15:35:00
10:55 AM,44.6,30.2,57,30.15,10.0,Calm,Calm,-,N/A,,Clear,0,2013-01-06 15:55:00
11:15 AM,44.6,32.0,61,30.13,10.0,Calm,Calm,-,N/A,,Clear,0,2013-01-06 16:15:00
11:35 AM,46.4,30.2,53,30.12,10.0,SE,3.5,-,N/A,,Clear,140,2013-01-06 16:35:00
11:55 AM,48.2,30.2,50,30.10,10.0,Calm,Calm,-,N/A,,Clear,0,2013-01-06 16:55:00
12:15 PM,48.2,30.2,50,30.10,10.0,Calm,Calm,-,N/A,,Clear,0,2013-01-06 17:15:00
12:35 PM,50.0,30.2,47,30.08,10.0,Calm,Calm,-,N/A,,Clear,0,2013-01-06 17:35:00
12:55 PM,51.8,30.2,44,30.07,10.0,Calm,Calm,-,N/A,,Clear,0,2013-01-06 17:55:00
1:15 PM,51.8,30.2,44,30.06,10.0,Calm,Calm,-,N/A,,Clear,0,2013-01-06 18:15:00
1:35 PM,51.8,30.2,44,30.06,10.0,SSW,3.5,-,N/A,,Clear,200,2013-01-06 18:35:00
1:55 PM,51.8,28.4,41,30.05,10.0,SSW,3.5,-,N/A,,Scattered Clouds,200,2013-01-06 18:55:00
2:15 PM,50.0,28.4,43,30.05,10.0,SW,3.5,-,N/A,,Mostly Cloudy,230,2013-01-06 19:15:00
2:35 PM,50.0,28.4,43,30.05,10.0,Calm,Calm,-,N/A,,Scattered Clouds,0,2013-01-06 19:35:00
2:55 PM,51.8,28.4,41,30.04,10.0,Calm,Calm,-,N/A,,Mostly Cloudy,0,2013-01-06 19:55:00
3:15 PM,50.0,28.4,43,30.04,10.0,Calm,Calm,-,N/A,,Scattered Clouds,0,2013-01-06 20:15:00
3:35 PM,50.0,28.4,43,30.04,10.0,Calm,Calm,-,N/A,,Mostly Cloudy,0,2013-01-06 20:35:00
3:55 PM,51.8,28.4,41,30.04,10.0,Calm,Calm,-,N/A,,Overcast,0,2013-01-06 20:55:00
4:15 PM,50.0,28.4,43,30.04,10.0,Calm,Calm,-,N/A,,Mostly Cloudy,0,2013-01-06 21:15:00
4:35 PM,48.2,30.2,50,30.04,10.0,Calm,Calm,-,N/A,,Mostly Cloudy,0,2013-01-06 21:35:00
4:55 PM,46.4,30.2,53,30.04,10.0,Calm,Calm,-,N/A,,Overcast,0,2013-01-06 21:55:00
5:15 PM,44.6,30.2,57,30.05,10.0,Calm,Calm,-,N/A,,Overcast,0,2013-01-06 22:15:00
5:35 PM,44.6,32.0,61,30.05,10.0,Calm,Calm,-,N/A,,Overcast,0,2013-01-06 22:35:00
5:55 PM,42.8,32.0,66,30.06,10.0,West,3.5,-,N/A,,Overcast,260,2013-01-06 22:55:00
6:15 PM,42.8,32.0,66,30.07,10.0,WSW,4.6,-,N/A,,Mostly Cloudy,240,2013-01-06 23:15:00
6:35 PM,44.6,28.4,53,30.08,10.0,West,4.6,-,N/A,,Mostly Cloudy,260,2013-01-06 23:35:00
6:55 PM,46.4,28.4,50,30.08,10.0,WSW,4.6,-,N/A,,Overcast,240,2013-01-06 23:55:00
7:15 PM,44.6,30.2,57,30.09,10.0,WSW,3.5,-,N/A,,Overcast,250,2013-01-07 00:15:00
7:35 PM,42.8,30.2,61,30.10,10.0,West,3.5,-,N/A,,Overcast,260,2013-01-07 00:35:00
7:55 PM,44.6,30.2,57,30.10,10.0,West,3.5,-,N/A,,Overcast,280,2013-01-07 00:55:00
8:15 PM,46.4,28.4,50,30.10,10.0,West,4.6,-,N/A,,Overcast,280,2013-01-07 01:15:00
8:35 PM,46.4,28.4,50,30.11,10.0,Calm,Calm,-,N/A,,Overcast,0,2013-01-07 01:35:00
8:55 PM,44.6,30.2,57,30.11,10.0,Calm,Calm,-,N/A,,Overcast,0,2013-01-07 01:55:00
9:15 PM,44.6,30.2,57,30.11,10.0,WNW,3.5,-,N/A,,Overcast,290,2013-01-07 02:15:00
9:35 PM,42.8,32.0,66,30.11,10.0,Calm,Calm,-,N/A,,Overcast,0,2013-01-07 02:35:00
9:55 PM,41.0,32.0,70,30.11,10.0,Calm,Calm,-,N/A,,Overcast,0,2013-01-07 02:55:00
10:15 PM,41.0,32.0,70,30.11,10.0,SW,3.5,-,N/A,,Overcast,230,2013-01-07 03:15:00
10:55 PM,39.2,32.0,75,30.13,10.0,Calm,Calm,-,N/A,,Overcast,0,2013-01-07 03:55:00
11:35 PM,37.4,32.0,81,30.15,10.0,Calm,Calm,-,N/A,,Overcast,0,2013-01-07 04:35:00
11:55 PM,37.4,32.0,81,30.15,10.0,Calm,Calm,-,N/A,,Overcast,0,2013-01-07 04:55:00